Time,TemperatureF,DewpointF,PressureIn,WindDirection,WindDirectionDegrees,WindSpeedMPH,WindSpeedGustMPH,Humidity,HourlyPrecipIn,Conditions,Clouds,dailyrainin,SolarRadiationWatts/m^2,SoftwareType,DateUTC
2013-01-02 00:02:00,11.1,8.2,30.71,NE,42,3.0,5.0,88,0.00,,CLR,0.00,0.00,VWS V14.01,2013-01-02 08:02:00,
2013-01-02 00:07:00,11.0,7.9,30.71,NE,35,4.0,5.0,87,0.00,,CLR,0.00,0.00,VWS V14.01,2013-01-02 08:07:00,
2013-01-02 00:12:00,10.8,7.7,30.71,NE,55,4.0,4.0,87,0.00,,CLR,0.00,0.00,VWS V14.01,2013-01-02 08:12:00,
2013-01-02 00:17:00,10.7,7.6,30.71,NE,48,3.0,5.0,87,0.00,,CLR,0.00,0.00,VWS V14.01,2013-01-02 08:17:00,
2013-01-02 00:22:00,10.5,7.4,30.71,NE,41,1.0,3.0,87,0.00,,CLR,0.00,0.00,VWS V14.01,2013-01-02 08:22:00,
2013-01-02 00:27:00,10.3,7.2,30.71,NE,42,1.0,2.0,87,0.00,,CLR,0.00,0.00,VWS V14.01,2013-01-02 08:27:00,
2013-01-02 00:32:00,10.2,7.1,30.71,NE,43,1.0,2.0,87,0.00,,CLR,0.00,0.00,VWS V14.01,2013-01-02 08:32:00,
2013-01-02 00:37:00,10.1,6.8,30.71,NE,43,0.0,0.0,86,0.00,,CLR,0.00,0.00,VWS V14.01,2013-01-02 08:37:00,
2013-01-02 00:42:00,9.8,6.5,30.71,NE,43,0.0,2.0,86,0.00,,CLR,0.00,0.00,VWS V14.01,2013-01-02 08:42:00,
2013-01-02 00:47:00,9.8,6.5,30.71,NE,43,1.0,1.0,86,0.00,,CLR,0.00,0.00,VWS V14.01,2013-01-02 08:47:00,
2013-01-02 00:52:00,9.8,6.7,30.71,NE,43,0.0,1.0,87,0.00,,CLR,0.00,0.00,VWS V14.01,2013-01-02 08:52:00,
2013-01-02 00:57:00,9.8,6.7,30.71,NE,43,0.0,1.0,87,0.00,,CLR,0.00,0.00,VWS V14.01,2013-01-02 08:57:00,
2013-01-02 01:02:00,9.6,6.5,30.70,NE,43,0.0,1.0,87,0.00,,CLR,0.00,0.00,VWS V14.01,2013-01-02 09:02:00,
2013-01-02 01:07:00,9.5,6.4,30.70,NE,43,0.0,0.0,87,0.00,,CLR,0.00,0.00,VWS V14.01,2013-01-02 09:07:00,
2013-01-02 01:12:00,9.5,6.4,30.70,NE,43,0.0,0.0,87,0.00,,CLR,0.00,0.00,VWS V14.01,2013-01-02 09:12:00,
2013-01-02 01:17:00,9.4,6.3,30.70,NE,43,0.0,0.0,87,0.00,,CLR,0.00,0.00,VWS V14.01,2013-01-02 09:17:00,
2013-01-02 01:22:00,9.4,6.1,30.70,NE,43,0.0,0.0,86,0.00,,CLR,0.00,0.00,VWS V14.01,2013-01-02 09:22:00,
2013-01-02 01:27:00,9.4,6.1,30.70,NE,43,0.0,0.0,86,0.00,,CLR,0.00,0.00,VWS V14.01,2013-01-02 09:27:00,
2013-01-02 01:32:00,9.3,6.0,30.70,NE,43,0.0,0.0,86,0.00,,CLR,0.00,0.00,VWS V14.01,2013-01-02 09:32:00,
2013-01-02 01:37:00,9.2,5.9,30.70,NE,43,0.0,0.0,86,0.00,,CLR,0.00,0.00,VWS V14.01,2013-01-02 09:37:00,
2013-01-02 01:42:00,8.9,5.3,30.70,NE,43,0.0,2.0,85,0.00,,CLR,0.00,0.00,VWS V14.01,2013-01-02 09:42:00,
2013-01-02 01:47:00,8.7,5.1,30.70,NE,43,2.0,2.0,85,0.00,,CLR,0.00,0.00,VWS V14.01,2013-01-02 09:47:00,
2013-01-02 01:52:00,8.6,5.3,30.70,NE,43,1.0,2.0,86,0.00,,CLR,0.00,0.00,VWS V14.01,2013-01-02 09:52:00,
2013-01-02 01:57:00,8.4,4.8,30.70,NE,43,0.0,0.0,85,0.00,,CLR,0.00,0.00,VWS V14.01,2013-01-02 09:57:00,
2013-01-02 02:02:00,8.3,4.7,30.71,NE,43,0.0,0.0,85,0.00,,CLR,0.00,0.00,VWS V14.01,2013-01-02 10:02:00,
2013-01-02 02:07:00,8.2,4.6,30.71,NE,43,1.0,2.0,85,0.00,,CLR,0.00,0.00,VWS V14.01,2013-01-02 10:07:00,
2013-01-02 02:12:00,8.1,4.5,30.71,NE,43,0.0,0.0,85,0.00,,CLR,0.00,0.00,VWS V14.01,2013-01-02 10:12:00,
2013-01-02 02:17:00,8.0,4.4,30.71,NE,43,0.0,1.0,85,0.00,,CLR,0.00,0.00,VWS V14.01,2013-01-02 10:17:00,
2013-01-02 02:22:00,7.9,4.3,30.71,NE,43,0.0,0.0,85,0.00,,CLR,0.00,0.00,VWS V14.01,2013-01-02 10:22:00,
2013-01-02 02:27:00,7.8,4.2,30.71,NE,43,0.0,0.0,85,0.00,,CLR,0.00,0.00,VWS V14.01,2013-01-02 10:27:00,
2013-01-02 02:32:00,7.6,4.0,30.71,NE,43,1.0,2.0,85,0.00,,CLR,0.00,0.00,VWS V14.01,2013-01-02 10:32:00,
2013-01-02 02:37:00,7.6,4.3,30.71,NE,43,1.0,2.0,86,0.00,,CLR,0.00,0.00,VWS V14.01,2013-01-02 10:37:00,
2013-01-02 02:42:00,7.6,4.3,30.71,NE,43,3.0,3.0,86,0.00,,CLR,0.00,0.00,VWS V14.01,2013-01-02 10:42:00,
2013-01-02 02:47:00,7.6,4.3,30.71,NE,43,1.0,2.0,86,0.00,,CLR,0.00,0.00,VWS V14.01,2013-01-02 10:47:00,
2013-01-02 02:52:00,7.7,4.4,30.71,NE,43,0.0,0.0,86,0.00,,CLR,0.00,0.00,VWS V14.01,2013-01-02 10:52:00,
2013-01-02 02:57:00,7.6,4.3,30.72,NE,43,1.0,2.0,86,0.00,,CLR,0.00,0.00,VWS V14.01,2013-01-02 10:57:00,
2013-01-02 03:02:00,7.4,4.1,30.71,NE,43,1.0,2.0,86,0.00,,CLR,0.00,0.00,VWS V14.01,2013-01-02 11:02:00,
2013-01-02 03:07:00,7.3,3.8,30.71,NE,43,0.0,1.0,85,0.00,,CLR,0.00,0.00,VWS V14.01,2013-01-02 11:07:00,
2013-01-02 03:12:00,7.0,3.5,30.71,NE,43,1.0,1.0,85,0.00,,CLR,0.00,0.00,VWS V14.01,2013-01-02 11:12:00,
2013-01-02 03:17:00,6.8,3.3,30.71,NE,43,0.0,1.0,85,0.00,,CLR,0.00,0.00,VWS V14.01,2013-01-02 11:17:00,
2013-01-02 03:22:00,6.6,3.1,30.71,NE,43,0.0,0.0,85,0.00,,CLR,0.00,0.00,VWS V14.01,2013-01-02 11:22:00,
2013-01-02 03:27:00,6.4,2.9,30.71,NE,43,0.0,1.0,85,0.00,,CLR,0.00,0.00,VWS V14.01,2013-01-02 11:27:00,
2013-01-02 03:32:00,6.2,2.4,30.71,NE,43,1.0,2.0,84,0.00,,CLR,0.00,0.00,VWS V14.01,2013-01-02 11:32:00,
2013-01-02 03:37:00,6.0,2.5,30.71,NE,43,1.0,2.0,85,0.00,,CLR,0.00,0.00,VWS V14.01,2013-01-02 11:37:00,
2013-01-02 03:42:00,5.9,2.4,30.71,NE,43,0.0,0.0,85,0.00,,CLR,0.00,0.00,VWS V14.01,2013-01-02 11:42:00,
2013-01-02 03:47:00,5.8,2.3,30.71,NE,43,0.0,0.0,85,0.00,,CLR,0.00,0.00,VWS V14.01,2013-01-02 11:47:00,
2013-01-02 03:52:00,5.7,2.2,30.71,NE,43,0.0,0.0,85,0.00,,CLR,0.00,0.00,VWS V14.01,2013-01-02 11:52:00,
2013-01-02 03:57:00,5.6,2.1,30.71,NE,43,0.0,1.0,85,0.00,,CLR,0.00,0.00,VWS V14.01,2013-01-02 11:57:00,
2013-01-02 04:02:00,5.5,2.0,30.71,NE,43,0.0,0.0,85,0.00,,CLR,0.00,0.00,VWS V14.01,2013-01-02 12:02:00,
2013-01-02 04:07:00,5.5,2.0,30.71,NE,43,0.0,0.0,85,0.00,,CLR,0.00,0.00,VWS V14.01,2013-01-02 12:07:00,
2013-01-02 04:12:00,5.4,1.9,30.71,NE,43,0.0,0.0,85,0.00,,CLR,0.00,0.00,VWS V14.01,2013-01-02 12:12:00,
2013-01-02 04:17:00,5.4,1.9,30.71,NE,43,0.0,0.0,85,0.00,,CLR,0.00,0.00,VWS V14.01,2013-01-02 12:17:00,
2013-01-02 04:22:00,5.1,1.3,30.71,NE,43,0.0,0.0,84,0.00,,CLR,0.00,0.00,VWS V14.01,2013-01-02 12:22:00,
2013-01-02 04:27:00,5.0,1.2,30.71,NE,43,0.0,0.0,84,0.00,,CLR,0.00,0.00,VWS V14.01,2013-01-02 12:27:00,
2013-01-02 04:32:00,4.8,1.3,30.70,NE,43,0.0,0.0,85,0.00,,CLR,0.00,0.00,VWS V14.01,2013-01-02 12:32:00,
2013-01-02 04:37:00,4.7,1.2,30.70,NE,43,0.0,0.0,85,0.00,,CLR,0.00,0.00,VWS V14.01,2013-01-02 12:37:00,
2013-01-02 04:42:00,4.7,1.2,30.70,NE,43,0.0,1.0,85,0.00,,CLR,0.00,0.00,VWS V14.01,2013-01-02 12:42:00,
2013-01-02 04:47:00,4.7,1.2,30.70,NE,43,0.0,0.0,85,0.00,,CLR,0.00,0.00,VWS V14.01,2013-01-02 12:47:00,
2013-01-02 04:52:00,4.7,1.2,30.70,NE,43,0.0,0.0,85,0.00,,CLR,0.00,0.00,VWS V14.01,2013-01-02 12:52:00,
2013-01-02 04:57:00,4.7,1.2,30.71,NE,43,0.0,0.0,85,0.00,,CLR,0.00,0.00,VWS V14.01,2013-01-02 12:57:00,
2013-01-02 05:02:00,4.6,1.1,30.71,NE,43,0.0,0.0,85,0.00,,CLR,0.00,0.00,VWS V14.01,2013-01-02 13:02:00,
2013-01-02 05:07:00,4.4,0.9,30.71,NE,43,0.0,0.0,85,0.00,,CLR,0.00,0.00,VWS V14.01,2013-01-02 13:07:00,
2013-01-02 05:12:00,4.2,0.7,30.71,NE,43,0.0,0.0,85,0.00,,CLR,0.00,0.00,VWS V14.01,2013-01-02 13:12:00,
2013-01-02 05:17:00,4.2,0.7,30.71,NE,43,0.0,0.0,85,0.00,,CLR,0.00,0.00,VWS V14.01,2013-01-02 13:17:00,
2013-01-02 05:22:00,4.2,0.7,30.71,NE,43,0.0,0.0,85,0.00,,CLR,0.00,0.00,VWS V14.01,2013-01-02 13:22:00,
2013-01-02 05:27:00,4.1,0.6,30.70,NE,43,0.0,0.0,85,0.00,,CLR,0.00,0.00,VWS V14.01,2013-01-02 13:27:00,
2013-01-02 05:32:00,4.1,0.6,30.70,NE,43,0.0,0.0,85,0.00,,CLR,0.00,0.00,VWS V14.01,2013-01-02 13:32:00,
2013-01-02 05:37:00,3.9,0.4,30.70,NE,43,0.0,0.0,85,0.00,,CLR,0.00,0.00,VWS V14.01,2013-01-02 13:37:00,
2013-01-02 05:42:00,3.7,0.2,30.70,NE,43,0.0,0.0,85,0.00,,CLR,0.00,0.00,VWS V14.01,2013-01-02 13:42:00,
2013-01-02 05:47:00,3.7,0.2,30.70,NE,43,0.0,0.0,85,0.00,,CLR,0.00,0.00,VWS V14.01,2013-01-02 13:47:00,
2013-01-02 05:53:00,3.6,0.1,30.70,NE,43,0.0,0.0,85,0.00,,CLR,0.00,0.00,VWS V14.01,2013-01-02 13:53:00,
2013-01-02 05:58:00,3.6,0.1,30.70,NE,43,0.0,0.0,85,0.00,,CLR,0.00,0.00,VWS V14.01,2013-01-02 13:58:00,
2013-01-02 06:05:00,3.7,0.5,30.70,NE,43,0.0,0.0,86,0.00,,CLR,0.00,0.00,VWS V14.01,2013-01-02 14:05:00,
2013-01-02 06:10:00,3.7,0.2,30.70,NE,43,0.0,0.0,85,0.00,,CLR,0.00,0.00,VWS V14.01,2013-01-02 14:10:00,
2013-01-02 06:15:00,3.7,0.2,30.70,NE,43,0.0,0.0,85,0.00,,CLR,0.00,0.00,VWS V14.01,2013-01-02 14:15:00,
2013-01-02 06:20:00,3.7,0.5,30.70,NE,43,0.0,0.0,86,0.00,,CLR,0.00,0.00,VWS V14.01,2013-01-02 14:20:00,
2013-01-02 06:25:00,3.8,0.6,30.71,NE,43,0.0,0.0,86,0.00,,FEW220,0.00,0.00,VWS V14.01,2013-01-02 14:25:00,
2013-01-02 06:30:00,3.8,0.6,30.70,NE,43,0.0,0.0,86,0.00,,FEW220,0.00,0.00,VWS V14.01,2013-01-02 14:30:00,
2013-01-02 06:36:00,3.8,0.6,30.71,NE,43,0.0,0.0,86,0.00,,FEW220,0.00,0.00,VWS V14.01,2013-01-02 14:36:00,
2013-01-02 06:41:00,3.8,0.6,30.70,NE,43,0.0,0.0,86,0.00,,FEW220,0.00,0.00,VWS V14.01,2013-01-02 14:41:00,
2013-01-02 06:46:00,3.9,0.6,30.71,NE,43,0.0,0.0,86,0.00,,FEW220,0.00,0.00,VWS V14.01,2013-01-02 14:46:00,
2013-01-02 06:51:00,3.9,0.6,30.70,NE,43,0.0,0.0,86,0.00,,FEW220,0.00,0.00,VWS V14.01,2013-01-02 14:51:00,
2013-01-02 06:56:00,3.9,0.6,30.70,NE,43,0.0,0.0,86,0.00,,FEW220,0.00,0.00,VWS V14.01,2013-01-02 14:56:00,
2013-01-02 07:01:00,3.8,0.6,30.70,NE,43,0.0,0.0,86,0.00,,SCT220,0.00,0.00,VWS V14.01,2013-01-02 15:01:00,
2013-01-02 07:14:00,3.8,0.6,30.69,SSE,158,2.0,2.0,86,0.00,,SCT220,0.00,0.00,VWS V14.01,2013-01-02 15:14:00,
2013-01-02 07:19:00,4.2,0.9,30.69,SSE,166,1.0,3.0,86,0.00,,SCT220,0.00,5.00,VWS V14.01,2013-01-02 15:19:00,
2013-01-02 07:24:00,4.8,1.8,30.69,SSE,166,0.0,2.0,87,0.00,,SCT220,0.00,7.00,VWS V14.01,2013-01-02 15:24:00,
2013-01-02 07:29:00,5.2,2.4,30.69,SSE,166,0.0,1.0,88,0.00,,SCT220,0.00,9.00,VWS V14.01,2013-01-02 15:29:00,
2013-01-02 07:34:00,5.6,2.8,30.69,SSE,166,0.0,0.0,88,0.00,,SCT220,0.00,11.00,VWS V14.01,2013-01-02 15:34:00,
2013-01-02 07:39:00,5.5,2.5,30.69,SSE,166,0.0,0.0,87,0.00,,SCT220,0.00,18.00,VWS V14.01,2013-01-02 15:39:00,
2013-01-02 07:44:00,5.4,2.4,30.70,SSE,166,0.0,2.0,87,0.00,,SCT220,0.00,19.00,VWS V14.01,2013-01-02 15:44:00,
2013-01-02 07:49:00,6.2,3.2,30.70,SSE,166,1.0,1.0,87,0.00,,SCT220,0.00,25.00,VWS V14.01,2013-01-02 15:49:00,
2013-01-02 07:54:00,7.0,4.2,30.70,SSE,163,1.0,2.0,88,0.00,,SCT220,0.00,28.00,VWS V14.01,2013-01-02 15:54:00,
2013-01-02 07:59:00,7.3,4.5,30.71,ENE,74,2.0,3.0,88,0.00,,SCT220,0.00,35.00,VWS V14.01,2013-01-02 15:59:00,
2013-01-02 08:04:00,7.2,4.2,30.71,ENE,65,1.0,3.0,87,0.00,,SCT220,0.00,33.00,VWS V14.01,2013-01-02 16:04:00,
2013-01-02 08:09:00,7.4,4.3,30.70,ENE,65,0.0,1.0,87,0.00,,SCT220,0.00,40.00,VWS V14.01,2013-01-02 16:09:00,
2013-01-02 08:20:00,7.5,4.4,30.71,ENE,65,0.0,0.0,87,0.00,,SCT220,0.00,67.00,VWS V14.01,2013-01-02 16:20:00,
2013-01-02 08:25:00,7.7,4.7,30.71,ENE,65,0.0,2.0,87,0.00,,SCT220,0.00,79.00,VWS V14.01,2013-01-02 16:25:00,
2013-01-02 08:32:00,8.5,5.4,30.71,ENE,65,0.0,0.0,87,0.00,,SCT220,0.00,86.00,VWS V14.01,2013-01-02 16:32:00,
2013-01-02 08:37:00,8.9,6.1,30.71,ENE,65,0.0,0.0,88,0.00,,SCT220,0.00,97.00,VWS V14.01,2013-01-02 16:37:00,
2013-01-02 08:42:00,9.3,6.5,30.71,ENE,65,0.0,0.0,88,0.00,,SCT220,0.00,91.00,VWS V14.01,2013-01-02 16:42:00,
2013-01-02 08:48:00,9.5,6.4,30.71,ENE,65,0.0,0.0,87,0.00,,SCT220,0.00,91.00,VWS V14.01,2013-01-02 16:48:00,
2013-01-02 08:53:00,9.8,7.0,30.72,ENE,65,0.0,0.0,88,0.00,,SCT220,0.00,102.00,VWS V14.01,2013-01-02 16:53:00,
2013-01-02 09:08:00,10.9,8.1,30.71,ENE,65,0.0,0.0,88,0.00,,SCT220,0.00,130.00,VWS V14.01,2013-01-02 17:08:00,
2013-01-02 09:17:00,11.8,8.9,30.72,ENE,66,0.0,0.0,88,0.00,,SCT220,0.00,141.00,VWS V14.01,2013-01-02 17:17:00,
2013-01-02 09:25:00,12.4,9.5,30.72,ENE,67,0.0,2.0,88,0.00,,SCT220,0.00,135.00,VWS V14.01,2013-01-02 17:25:00,
2013-01-02 09:30:00,12.4,9.3,30.72,ENE,67,0.0,1.0,87,0.00,,SCT220,0.00,130.00,VWS V14.01,2013-01-02 17:30:00,
2013-01-02 09:35:00,12.6,9.5,30.72,ENE,67,0.0,1.0,87,0.00,,SCT220,0.00,301.00,VWS V14.01,2013-01-02 17:35:00,
2013-01-02 09:40:00,13.4,10.5,30.72,ENE,67,0.0,1.0,88,0.00,,SCT220,0.00,308.00,VWS V14.01,2013-01-02 17:40:00,
2013-01-02 09:45:00,15.3,12.6,30.72,ENE,67,0.0,0.0,89,0.00,,SCT220,0.00,295.00,VWS V14.01,2013-01-02 17:45:00,
2013-01-02 09:50:00,14.8,11.9,30.71,ENE,67,0.0,1.0,88,0.00,,SCT220,0.00,292.00,VWS V14.01,2013-01-02 17:50:00,
2013-01-02 09:55:00,16.2,13.3,30.71,West,262,2.0,2.0,88,0.00,,SCT220,0.00,295.00,VWS V14.01,2013-01-02 17:55:00,
2013-01-02 10:00:00,17.6,14.7,30.71,West,262,0.0,3.0,88,0.00,,SCT220,0.00,302.00,VWS V14.01,2013-01-02 18:00:00,
2013-01-02 10:05:00,18.0,14.5,30.71,West,262,0.0,1.0,86,0.00,,SCT220,0.00,306.00,VWS V14.01,2013-01-02 18:05:00,
2013-01-02 10:10:00,17.2,13.7,30.71,WNW,287,2.0,3.0,86,0.00,,SCT220,0.00,311.00,VWS V14.01,2013-01-02 18:10:00,
2013-01-02 10:15:00,18.0,14.5,30.71,West,271,1.0,3.0,86,0.00,,SCT220,0.00,322.00,VWS V14.01,2013-01-02 18:15:00,
2013-01-02 10:20:00,18.5,14.8,30.71,WSW,254,2.0,2.0,85,0.00,,SCT220,0.00,330.00,VWS V14.01,2013-01-02 18:20:00,
2013-01-02 10:25:00,17.9,13.6,30.71,West,269,0.0,2.0,83,0.00,,SCT220,0.00,327.00,VWS V14.01,2013-01-02 18:25:00,
2013-01-02 10:30:00,19.4,15.4,30.71,WSW,254,0.0,3.0,84,0.00,,SCT220,0.00,339.00,VWS V14.01,2013-01-02 18:30:00,
2013-01-02 10:35:00,18.1,13.8,30.71,NW,307,2.0,3.0,83,0.00,,SCT220,0.00,343.00,VWS V14.01,2013-01-02 18:35:00,
2013-01-02 10:40:00,17.5,13.5,30.71,NW,309,1.0,3.0,84,0.00,,SCT220,0.00,352.00,VWS V14.01,2013-01-02 18:40:00,
2013-01-02 10:45:00,20.3,16.8,30.71,NW,309,0.0,1.0,86,0.00,,SCT220,0.00,313.00,VWS V14.01,2013-01-02 18:45:00,
2013-01-02 10:50:00,18.9,14.3,30.70,North,5,0.0,3.0,82,0.00,,SCT220,0.00,380.00,VWS V14.01,2013-01-02 18:50:00,
2013-01-02 10:55:00,18.5,13.9,30.70,NNE,28,2.0,3.0,82,0.00,,SCT220,0.00,381.00,VWS V14.01,2013-01-02 18:55:00,
2013-01-02 11:00:00,18.3,13.7,30.70,NNE,30,2.0,3.0,82,0.00,,SCT220,0.00,394.00,VWS V14.01,2013-01-02 19:00:00,
2013-01-02 11:05:00,18.7,14.1,30.70,NE,35,2.0,3.0,82,0.00,,SCT220,0.00,401.00,VWS V14.01,2013-01-02 19:05:00,
2013-01-02 11:10:00,19.7,15.7,30.70,NE,52,3.0,4.0,84,0.00,,SCT220,0.00,410.00,VWS V14.01,2013-01-02 19:10:00,
2013-01-02 11:15:00,20.0,15.4,30.69,NE,37,2.0,4.0,82,0.00,,SCT220,0.00,413.00,VWS V14.01,2013-01-02 19:15:00,
2013-01-02 11:20:00,19.9,15.3,30.69,NE,34,3.0,7.0,82,0.00,,SCT220,0.00,422.00,VWS V14.01,2013-01-02 19:20:00,
2013-01-02 11:25:00,19.8,15.2,30.69,NNE,28,5.0,6.0,82,0.00,,SCT220,0.00,427.00,VWS V14.01,2013-01-02 19:25:00,
2013-01-02 11:30:00,20.3,15.7,30.69,NE,43,0.0,4.0,82,0.00,,SCT220,0.00,434.00,VWS V14.01,2013-01-02 19:30:00,
2013-01-02 11:35:00,20.5,15.6,30.68,NNE,29,3.0,4.0,81,0.00,,SCT220,0.00,441.00,VWS V14.01,2013-01-02 19:35:00,
2013-01-02 11:40:00,20.3,15.4,30.68,NNE,28,0.0,3.0,81,0.00,,SCT220,0.00,443.00,VWS V14.01,2013-01-02 19:40:00,
2013-01-02 11:45:00,21.9,17.0,30.68,NNE,28,0.0,1.0,81,0.00,,SCT220,0.00,450.00,VWS V14.01,2013-01-02 19:45:00,
2013-01-02 11:50:00,21.6,15.8,30.68,NNE,28,0.0,2.0,78,0.00,,SCT220,0.00,452.00,VWS V14.01,2013-01-02 19:50:00,
2013-01-02 11:55:00,21.2,15.7,30.67,NNE,13,2.0,3.0,79,0.00,,SCT220,0.00,448.00,VWS V14.01,2013-01-02 19:55:00,
2013-01-02 12:00:00,21.4,16.2,30.67,NNE,13,1.0,2.0,80,0.00,,SCT220,0.00,450.00,VWS V14.01,2013-01-02 20:00:00,
2013-01-02 12:05:00,23.0,17.2,30.67,NNE,21,2.0,2.0,78,0.00,,SCT220,0.00,448.00,VWS V14.01,2013-01-02 20:05:00,
2013-01-02 12:10:00,22.8,17.0,30.67,NE,50,0.0,3.0,78,0.00,,SCT220,0.00,452.00,VWS V14.01,2013-01-02 20:10:00,
2013-01-02 12:15:00,23.6,17.5,30.66,NE,50,0.0,1.0,77,0.00,,SCT220,0.00,450.00,VWS V14.01,2013-01-02 20:15:00,
2013-01-02 12:20:00,22.8,16.4,30.66,NNE,20,0.0,3.0,76,0.00,,SCT220,0.00,450.00,VWS V14.01,2013-01-02 20:20:00,
2013-01-02 12:25:00,23.8,17.4,30.66,NNE,28,2.0,3.0,76,0.00,,SCT220,0.00,450.00,VWS V14.01,2013-01-02 20:25:00,
2013-01-02 12:30:00,23.1,16.4,30.66,NE,36,2.0,5.0,75,0.00,,SCT220,0.00,448.00,VWS V14.01,2013-01-02 20:30:00,
2013-01-02 12:35:00,22.9,16.5,30.66,NNE,26,0.0,5.0,76,0.00,,SCT220,0.00,445.00,VWS V14.01,2013-01-02 20:35:00,
2013-01-02 12:40:00,23.5,17.4,30.65,NE,42,0.0,5.0,77,0.00,,SCT220,0.00,443.00,VWS V14.01,2013-01-02 20:40:00,
2013-01-02 12:45:00,24.8,18.6,30.65,ENE,59,0.0,2.0,77,0.00,,SCT220,0.00,438.00,VWS V14.01,2013-01-02 20:45:00,
2013-01-02 12:50:00,24.3,16.9,30.65,NE,39,2.0,5.0,73,0.00,,SCT220,0.00,436.00,VWS V14.01,2013-01-02 20:50:00,
2013-01-02 12:55:00,23.7,16.6,30.64,NE,39,0.0,3.0,74,0.00,,SCT220,0.00,432.00,VWS V14.01,2013-01-02 20:55:00,
2013-01-02 13:00:00,24.9,18.1,30.64,NE,39,0.0,3.0,75,0.00,,SCT220,0.00,431.00,VWS V14.01,2013-01-02 21:00:00,
2013-01-02 13:05:00,24.3,16.9,30.64,NE,39,2.0,2.0,73,0.00,,FEW035,0.00,420.00,VWS V14.01,2013-01-02 21:05:00,
2013-01-02 13:10:00,24.2,17.1,30.63,NE,34,0.0,3.0,74,0.00,,FEW035,0.00,420.00,VWS V14.01,2013-01-02 21:10:00,
2013-01-02 13:15:00,24.3,17.2,30.63,NE,50,1.0,3.0,74,0.00,,FEW035,0.00,411.00,VWS V14.01,2013-01-02 21:15:00,
2013-01-02 13:20:00,24.3,17.2,30.63,NE,40,0.0,2.0,74,0.00,,FEW035,0.00,406.00,VWS V14.01,2013-01-02 21:20:00,
2013-01-02 13:25:00,27.4,19.9,30.63,NE,40,0.0,1.0,73,0.00,,FEW035,0.00,401.00,VWS V14.01,2013-01-02 21:25:00,
2013-01-02 13:30:00,26.6,18.5,30.63,ENE,57,0.0,2.0,71,0.00,,FEW035,0.00,394.00,VWS V14.01,2013-01-02 21:30:00,
2013-01-02 13:35:00,25.9,17.8,30.63,NE,48,0.0,3.0,71,0.00,,FEW035,0.00,388.00,VWS V14.01,2013-01-02 21:35:00,
2013-01-02 13:40:00,26.3,18.8,30.63,NE,44,1.0,4.0,73,0.00,,FEW035,0.00,385.00,VWS V14.01,2013-01-02 21:40:00,
2013-01-02 13:45:00,25.7,17.9,30.63,NE,55,3.0,5.0,72,0.00,,FEW035,0.00,376.00,VWS V14.01,2013-01-02 21:45:00,
2013-01-02 13:50:00,25.6,17.8,30.63,NE,54,0.0,3.0,72,0.00,,FEW035,0.00,366.00,VWS V14.01,2013-01-02 21:50:00,
2013-01-02 13:55:00,25.7,17.6,30.63,NE,55,1.0,3.0,71,0.00,,FEW035,0.00,359.00,VWS V14.01,2013-01-02 21:55:00,
2013-01-02 14:00:00,26.9,18.8,30.62,ESE,107,0.0,2.0,71,0.00,,FEW035,0.00,346.00,VWS V14.01,2013-01-02 22:00:00,
2013-01-02 14:05:00,27.0,18.2,30.62,ENE,69,0.0,3.0,69,0.00,,FEW040,0.00,339.00,VWS V14.01,2013-01-02 22:05:00,
2013-01-02 14:10:00,26.5,17.7,30.63,NNE,31,2.0,3.0,69,0.00,,FEW040,0.00,330.00,VWS V14.01,2013-01-02 22:10:00,
2013-01-02 14:15:00,26.1,18.0,30.63,ESE,103,3.0,4.0,71,0.00,,FEW040,0.00,323.00,VWS V14.01,2013-01-02 22:15:00,
2013-01-02 14:20:00,26.3,17.9,30.63,NE,55,0.0,4.0,70,0.00,,FEW040,0.00,315.00,VWS V14.01,2013-01-02 22:20:00,
2013-01-02 14:25:00,27.2,18.7,30.63,NE,49,2.0,3.0,70,0.00,,FEW040,0.00,302.00,VWS V14.01,2013-01-02 22:25:00,
2013-01-02 14:30:00,27.6,18.8,30.62,NE,55,0.0,5.0,69,0.00,,FEW040,0.00,292.00,VWS V14.01,2013-01-02 22:30:00,
2013-01-02 14:35:00,27.5,18.3,30.62,ENE,76,2.0,5.0,68,0.00,,FEW040,0.00,278.00,VWS V14.01,2013-01-02 22:35:00,
2013-01-02 14:40:00,27.2,18.4,30.63,East,84,2.0,6.0,69,0.00,,FEW040,0.00,265.00,VWS V14.01,2013-01-02 22:40:00,
2013-01-02 14:45:00,27.5,18.3,30.62,East,83,0.0,3.0,68,0.00,,FEW040,0.00,255.00,VWS V14.01,2013-01-02 22:45:00,
2013-01-02 14:50:00,26.9,17.8,30.63,NE,55,1.0,3.0,68,0.00,,FEW040,0.00,243.00,VWS V14.01,2013-01-02 22:50:00,
2013-01-02 14:55:00,26.6,17.8,30.63,NE,40,1.0,4.0,69,0.00,,FEW040,0.00,229.00,VWS V14.01,2013-01-02 22:55:00,
2013-01-02 15:00:00,27.0,18.2,30.63,NE,55,0.0,2.0,69,0.00,,FEW040,0.00,211.00,VWS V14.01,2013-01-02 23:00:00,
2013-01-02 15:05:00,27.1,18.3,30.63,East,96,1.0,3.0,69,0.00,,FEW030,0.00,197.00,VWS V14.01,2013-01-02 23:05:00,
2013-01-02 15:10:00,27.0,17.5,30.63,ENE,66,2.0,3.0,67,0.00,,FEW030,0.00,181.00,VWS V14.01,2013-01-02 23:10:00,
2013-01-02 15:15:00,27.1,18.6,30.63,ESE,105,1.0,3.0,70,0.00,,FEW030,0.00,167.00,VWS V14.01,2013-01-02 23:15:00,
2013-01-02 15:20:00,27.5,18.3,30.63,ENE,74,0.0,3.0,68,0.00,,FEW030,0.00,155.00,VWS V14.01,2013-01-02 23:20:00,
2013-01-02 15:25:00,26.5,17.7,30.63,NE,55,2.0,5.0,69,0.00,,FEW030,0.00,139.00,VWS V14.01,2013-01-02 23:25:00,
2013-01-02 15:30:00,26.8,18.3,30.63,ESE,105,2.0,3.0,70,0.00,,FEW030,0.00,125.00,VWS V14.01,2013-01-02 23:30:00,
2013-01-02 15:35:00,26.9,17.8,30.63,East,85,1.0,5.0,68,0.00,,FEW030,0.00,109.00,VWS V14.01,2013-01-02 23:35:00,
2013-01-02 15:40:00,26.9,17.8,30.63,East,91,3.0,5.0,68,0.00,,FEW030,0.00,95.00,VWS V14.01,2013-01-02 23:40:00,
2013-01-02 15:45:00,27.1,18.0,30.63,East,82,3.0,3.0,68,0.00,,FEW030,0.00,83.00,VWS V14.01,2013-01-02 23:45:00,
2013-01-02 15:50:00,26.7,17.6,30.63,ENE,74,1.0,4.0,68,0.00,,FEW030,0.00,70.00,VWS V14.01,2013-01-02 23:50:00,
2013-01-02 15:55:00,26.2,16.8,30.63,NE,44,2.0,3.0,67,0.00,,FEW030,0.00,58.00,VWS V14.01,2013-01-02 23:55:00,
2013-01-02 16:00:00,26.0,16.9,30.63,NE,53,3.0,3.0,68,0.00,,FEW030,0.00,44.00,VWS V14.01,2013-01-03 00:00:00,
2013-01-02 16:05:00,25.9,16.8,30.63,NE,42,0.0,4.0,68,0.00,,FEW030,0.00,33.00,VWS V14.01,2013-01-03 00:05:00,
2013-01-02 16:10:00,26.0,17.2,30.63,ENE,67,1.0,3.0,69,0.00,,FEW030,0.00,25.00,VWS V14.01,2013-01-03 00:10:00,
2013-01-02 16:15:00,25.9,17.1,30.63,ENE,67,1.0,3.0,69,0.00,,FEW030,0.00,21.00,VWS V14.01,2013-01-03 00:15:00,
2013-01-02 16:20:00,25.7,17.3,30.63,NE,46,1.0,3.0,70,0.00,,FEW030,0.00,18.00,VWS V14.01,2013-01-03 00:20:00,
2013-01-02 16:25:00,25.3,17.2,30.63,NE,53,3.0,4.0,71,0.00,,FEW030,0.00,14.00,VWS V14.01,2013-01-03 00:25:00,
2013-01-02 16:30:00,25.1,17.0,30.63,NE,38,0.0,3.0,71,0.00,,FEW030,0.00,12.00,VWS V14.01,2013-01-03 00:30:00,
2013-01-02 16:35:00,24.9,17.2,30.64,NE,39,0.0,2.0,72,0.00,,FEW030,0.00,9.00,VWS V14.01,2013-01-03 00:35:00,
2013-01-02 16:40:00,24.6,16.9,30.64,NE,38,0.0,1.0,72,0.00,,FEW030,0.00,7.00,VWS V14.01,2013-01-03 00:40:00,
2013-01-02 16:45:00,24.4,16.7,30.64,NE,38,0.0,1.0,72,0.00,,FEW030,0.00,0.00,VWS V14.01,2013-01-03 00:45:00,
2013-01-02 16:50:00,24.3,16.9,30.64,NE,38,0.0,0.0,73,0.00,,FEW030,0.00,0.00,VWS V14.01,2013-01-03 00:50:00,
2013-01-02 16:55:00,24.0,16.6,30.64,NE,38,0.0,0.0,73,0.00,,FEW030,0.00,0.00,VWS V14.01,2013-01-03 00:55:00,
2013-01-02 17:00:00,23.9,16.8,30.64,NE,38,0.0,0.0,74,0.00,,FEW080,0.00,0.00,VWS V14.01,2013-01-03 01:00:00,
2013-01-02 17:05:00,23.8,16.7,30.64,NE,38,0.0,0.0,74,0.00,,FEW080,0.00,0.00,VWS V14.01,2013-01-03 01:05:00,
2013-01-02 17:10:00,23.8,16.7,30.64,NE,38,0.0,0.0,74,0.00,,FEW080,0.00,0.00,VWS V14.01,2013-01-03 01:10:00,
2013-01-02 17:15:00,23.6,16.5,30.64,NE,38,0.0,0.0,74,0.00,,FEW080,0.00,0.00,VWS V14.01,2013-01-03 01:15:00,
2013-01-02 17:20:00,23.4,16.7,30.64,NE,38,0.0,0.0,75,0.00,,FEW080,0.00,0.00,VWS V14.01,2013-01-03 01:20:00,
2013-01-02 17:25:00,23.2,16.5,30.64,NE,38,0.0,0.0,75,0.00,,FEW080,0.00,0.00,VWS V14.01,2013-01-03 01:25:00,
2013-01-02 17:30:00,22.9,16.5,30.64,NE,38,0.0,0.0,76,0.00,,FEW080,0.00,0.00,VWS V14.01,2013-01-03 01:30:00,
2013-01-02 17:35:00,22.6,16.2,30.65,NE,38,1.0,1.0,76,0.00,,FEW080,0.00,0.00,VWS V14.01,2013-01-03 01:35:00,
2013-01-02 17:40:00,22.0,15.9,30.65,NE,38,0.0,0.0,77,0.00,,FEW080,0.00,0.00,VWS V14.01,2013-01-03 01:40:00,
2013-01-02 17:45:00,21.5,15.7,30.65,NE,38,1.0,1.0,78,0.00,,FEW080,0.00,0.00,VWS V14.01,2013-01-03 01:45:00,
2013-01-02 17:50:00,21.1,15.6,30.65,NE,38,0.0,0.0,79,0.00,,FEW080,0.00,0.00,VWS V14.01,2013-01-03 01:50:00,
2013-01-02 17:55:00,21.0,15.5,30.65,NE,38,0.0,0.0,79,0.00,,FEW080,0.00,0.00,VWS V14.01,2013-01-03 01:55:00,
2013-01-02 18:00:00,20.7,15.5,30.65,NE,38,0.0,0.0,80,0.00,,CLR,0.00,0.00,VWS V14.01,2013-01-03 02:00:00,
2013-01-02 18:06:00,20.4,15.2,30.65,NE,38,0.0,0.0,80,0.00,,CLR,0.00,0.00,VWS V14.01,2013-01-03 02:06:00,
2013-01-02 18:11:00,20.3,15.4,30.65,NE,38,0.0,0.0,81,0.00,,CLR,0.00,0.00,VWS V14.01,2013-01-03 02:11:00,
2013-01-02 18:16:00,20.2,15.3,30.65,NE,38,0.0,1.0,81,0.00,,CLR,0.00,0.00,VWS V14.01,2013-01-03 02:16:00,
2013-01-02 18:21:00,20.0,15.1,30.65,NE,38,0.0,0.0,81,0.00,,CLR,0.00,0.00,VWS V14.01,2013-01-03 02:21:00,
2013-01-02 18:26:00,19.8,14.9,30.65,NE,38,0.0,0.0,81,0.00,,CLR,0.00,0.00,VWS V14.01,2013-01-03 02:26:00,
2013-01-02 18:31:00,19.7,14.8,30.65,NE,38,0.0,0.0,81,0.00,,CLR,0.00,0.00,VWS V14.01,2013-01-03 02:31:00,
2013-01-02 18:36:00,19.6,14.7,30.65,NE,38,0.0,0.0,81,0.00,,CLR,0.00,0.00,VWS V14.01,2013-01-03 02:36:00,
2013-01-02 18:41:00,19.4,14.5,30.65,NE,38,0.0,0.0,81,0.00,,CLR,0.00,0.00,VWS V14.01,2013-01-03 02:41:00,
2013-01-02 18:46:00,19.2,14.3,30.65,NE,38,0.0,0.0,81,0.00,,CLR,0.00,0.00,VWS V14.01,2013-01-03 02:46:00,
2013-01-02 18:51:00,18.9,14.0,30.65,NE,38,0.0,0.0,81,0.00,,CLR,0.00,0.00,VWS V14.01,2013-01-03 02:51:00,
2013-01-02 18:56:00,18.7,14.1,30.65,NE,38,0.0,0.0,82,0.00,,CLR,0.00,0.00,VWS V14.01,2013-01-03 02:56:00,
2013-01-02 19:01:00,18.5,13.9,30.65,NE,38,0.0,0.0,82,0.00,,CLR,0.00,0.00,VWS V14.01,2013-01-03 03:01:00,
2013-01-02 19:06:00,18.3,13.7,30.65,NE,38,0.0,0.0,82,0.00,,CLR,0.00,0.00,VWS V14.01,2013-01-03 03:06:00,
2013-01-02 19:11:00,17.8,13.2,30.65,NE,38,0.0,0.0,82,0.00,,CLR,0.00,0.00,VWS V14.01,2013-01-03 03:11:00,
2013-01-02 19:16:00,17.5,13.2,30.65,NE,38,0.0,0.0,83,0.00,,CLR,0.00,0.00,VWS V14.01,2013-01-03 03:16:00,
2013-01-02 19:21:00,17.3,13.3,30.65,NE,38,2.0,2.0,84,0.00,,CLR,0.00,0.00,VWS V14.01,2013-01-03 03:21:00,
2013-01-02 19:26:00,17.0,13.0,30.65,NE,38,1.0,3.0,84,0.00,,CLR,0.00,0.00,VWS V14.01,2013-01-03 03:26:00,
2013-01-02 19:31:00,16.7,13.0,30.65,NE,40,1.0,2.0,85,0.00,,CLR,0.00,0.00,VWS V14.01,2013-01-03 03:31:00,
2013-01-02 19:37:00,16.6,12.9,30.65,NE,40,0.0,1.0,85,0.00,,CLR,0.00,0.00,VWS V14.01,2013-01-03 03:37:00,
2013-01-02 19:43:00,16.6,12.9,30.65,NE,40,2.0,2.0,85,0.00,,CLR,0.00,0.00,VWS V14.01,2013-01-03 03:43:00,
2013-01-02 19:48:00,16.4,12.7,30.65,NE,40,1.0,3.0,85,0.00,,CLR,0.00,0.00,VWS V14.01,2013-01-03 03:48:00,
2013-01-02 19:53:00,16.3,12.6,30.65,NE,40,1.0,2.0,85,0.00,,CLR,0.00,0.00,VWS V14.01,2013-01-03 03:53:00,
2013-01-02 19:58:00,16.2,12.5,30.65,NE,40,0.0,2.0,85,0.00,,CLR,0.00,0.00,VWS V14.01,2013-01-03 03:58:00,
2013-01-02 20:03:00,16.1,12.4,30.65,NE,52,2.0,3.0,85,0.00,,CLR,0.00,0.00,VWS V14.01,2013-01-03 04:03:00,
2013-01-02 20:08:00,15.9,12.5,30.65,NE,52,0.0,2.0,86,0.00,,CLR,0.00,0.00,VWS V14.01,2013-01-03 04:08:00,
2013-01-02 20:13:00,15.7,12.3,30.65,NE,52,1.0,2.0,86,0.00,,CLR,0.00,0.00,VWS V14.01,2013-01-03 04:13:00,
2013-01-02 20:19:00,15.5,12.1,30.65,NE,52,0.0,0.0,86,0.00,,CLR,0.00,0.00,VWS V14.01,2013-01-03 04:19:00,
2013-01-02 20:24:00,15.4,11.7,30.65,NE,52,0.0,0.0,85,0.00,,CLR,0.00,0.00,VWS V14.01,2013-01-03 04:24:00,
2013-01-02 20:29:00,14.9,11.2,30.65,NE,52,0.0,0.0,85,0.00,,CLR,0.00,0.00,VWS V14.01,2013-01-03 04:29:00,
2013-01-02 20:34:00,14.7,11.0,30.65,NE,52,0.0,0.0,85,0.00,,CLR,0.00,0.00,VWS V14.01,2013-01-03 04:34:00,
2013-01-02 20:39:00,14.6,10.9,30.64,NE,52,0.0,0.0,85,0.00,,CLR,0.00,0.00,VWS V14.01,2013-01-03 04:39:00,
2013-01-02 20:44:00,14.3,10.6,30.65,NE,52,0.0,0.0,85,0.00,,CLR,0.00,0.00,VWS V14.01,2013-01-03 04:44:00,
2013-01-02 20:49:00,14.1,10.4,30.65,NE,52,0.0,0.0,85,0.00,,CLR,0.00,0.00,VWS V14.01,2013-01-03 04:49:00,
2013-01-02 20:54:00,13.9,10.2,30.64,NE,52,0.0,0.0,85,0.00,,CLR,0.00,0.00,VWS V14.01,2013-01-03 04:54:00,
2013-01-02 20:59:00,13.8,10.1,30.65,NE,52,0.0,0.0,85,0.00,,CLR,0.00,0.00,VWS V14.01,2013-01-03 04:59:00,
2013-01-02 21:00:00,13.7,10.0,30.65,NE,52,0.0,0.0,85,0.00,,CLR,0.00,0.00,VWS V14.01,2013-01-03 05:00:00,
2013-01-02 21:02:00,13.7,10.0,30.65,NE,52,0.0,0.0,85,0.00,,CLR,0.00,0.00,VWS V14.01,2013-01-03 05:02:00,
2013-01-02 21:03:00,13.7,10.0,30.65,NE,52,0.0,0.0,85,0.00,,CLR,0.00,0.00,VWS V14.01,2013-01-03 05:03:00,
2013-01-02 21:08:00,13.4,9.7,30.65,NE,52,0.0,0.0,85,0.00,,CLR,0.00,0.00,VWS V14.01,2013-01-03 05:08:00,
2013-01-02 21:13:00,13.3,9.6,30.65,NE,52,0.0,0.0,85,0.00,,CLR,0.00,0.00,VWS V14.01,2013-01-03 05:13:00,
2013-01-02 21:18:00,13.2,9.6,30.65,NE,52,0.0,0.0,85,0.00,,CLR,0.00,0.00,VWS V14.01,2013-01-03 05:18:00,
2013-01-02 21:23:00,13.1,9.4,30.65,NE,52,0.0,0.0,85,0.00,,CLR,0.00,0.00,VWS V14.01,2013-01-03 05:23:00,
2013-01-02 21:28:00,12.9,9.2,30.65,NE,52,0.0,0.0,85,0.00,,CLR,0.00,0.00,VWS V14.01,2013-01-03 05:28:00,
2013-01-02 21:33:00,12.8,9.1,30.65,NE,52,0.0,0.0,85,0.00,,CLR,0.00,0.00,VWS V14.01,2013-01-03 05:33:00,
2013-01-02 21:38:00,12.6,9.0,30.65,NE,52,0.0,0.0,85,0.00,,CLR,0.00,0.00,VWS V14.01,2013-01-03 05:38:00,
2013-01-02 21:43:00,12.4,8.8,30.65,NE,52,0.0,0.0,85,0.00,,CLR,0.00,0.00,VWS V14.01,2013-01-03 05:43:00,
2013-01-02 21:48:00,12.2,8.6,30.65,NE,52,0.0,0.0,85,0.00,,CLR,0.00,0.00,VWS V14.01,2013-01-03 05:48:00,
2013-01-02 21:53:00,12.0,8.4,30.65,NE,52,0.0,0.0,85,0.00,,CLR,0.00,0.00,VWS V14.01,2013-01-03 05:53:00,
2013-01-02 21:58:00,11.9,8.3,30.65,NE,52,0.0,0.0,85,0.00,,CLR,0.00,0.00,VWS V14.01,2013-01-03 05:58:00,
2013-01-02 22:03:00,11.8,8.2,30.65,NE,52,0.0,0.0,85,0.00,,CLR,0.00,0.00,VWS V14.01,2013-01-03 06:03:00,
2013-01-02 22:08:00,11.6,8.0,30.65,NE,52,0.0,0.0,85,0.00,,CLR,0.00,0.00,VWS V14.01,2013-01-03 06:08:00,
2013-01-02 22:13:00,11.4,7.8,30.65,NE,52,0.0,0.0,85,0.00,,CLR,0.00,0.00,VWS V14.01,2013-01-03 06:13:00,
2013-01-02 22:18:00,11.2,7.6,30.65,NE,52,0.0,0.0,85,0.00,,CLR,0.00,0.00,VWS V14.01,2013-01-03 06:18:00,
2013-01-02 22:23:00,11.2,7.8,30.64,NE,52,0.0,0.0,86,0.00,,CLR,0.00,0.00,VWS V14.01,2013-01-03 06:23:00,
2013-01-02 22:28:00,11.2,7.8,30.64,NE,52,0.0,0.0,86,0.00,,CLR,0.00,0.00,VWS V14.01,2013-01-03 06:28:00,
2013-01-02 22:33:00,11.2,8.1,30.64,NE,52,0.0,0.0,87,0.00,,CLR,0.00,0.00,VWS V14.01,2013-01-03 06:33:00,
2013-01-02 22:38:00,11.1,7.7,30.64,NE,52,0.0,0.0,86,0.00,,CLR,0.00,0.00,VWS V14.01,2013-01-03 06:38:00,
2013-01-02 22:43:00,11.1,8.0,30.64,NE,52,0.0,0.0,87,0.00,,CLR,0.00,0.00,VWS V14.01,2013-01-03 06:43:00,
2013-01-02 22:48:00,11.1,8.0,30.64,NE,52,0.0,0.0,87,0.00,,CLR,0.00,0.00,VWS V14.01,2013-01-03 06:48:00,
2013-01-02 22:53:00,11.0,7.9,30.64,NE,52,0.0,0.0,87,0.00,,CLR,0.00,0.00,VWS V14.01,2013-01-03 06:53:00,
2013-01-02 22:58:00,10.9,7.8,30.64,NE,52,0.0,0.0,87,0.00,,CLR,0.00,0.00,VWS V14.01,2013-01-03 06:58:00,
2013-01-02 23:03:00,10.8,7.7,30.64,NE,52,0.0,0.0,87,0.00,,CLR,0.00,0.00,VWS V14.01,2013-01-03 07:03:00,
2013-01-02 23:08:00,10.7,7.3,30.64,NE,52,1.0,1.0,86,0.00,,CLR,0.00,0.00,VWS V14.01,2013-01-03 07:08:00,
2013-01-02 23:13:00,10.5,7.2,30.64,NE,52,0.0,1.0,86,0.00,,CLR,0.00,0.00,VWS V14.01,2013-01-03 07:13:00,
2013-01-02 23:18:00,10.4,7.1,30.64,NE,52,0.0,1.0,86,0.00,,CLR,0.00,0.00,VWS V14.01,2013-01-03 07:18:00,
2013-01-02 23:23:00,10.3,6.9,30.63,NE,52,0.0,1.0,86,0.00,,CLR,0.00,0.00,VWS V14.01,2013-01-03 07:23:00,
2013-01-02 23:28:00,10.1,6.8,30.63,NE,52,1.0,1.0,86,0.00,,CLR,0.00,0.00,VWS V14.01,2013-01-03 07:28:00,
2013-01-02 23:33:00,10.1,6.8,30.63,NE,52,0.0,1.0,86,0.00,,CLR,0.00,0.00,VWS V14.01,2013-01-03 07:33:00,
2013-01-02 23:38:00,10.1,6.8,30.62,NE,52,0.0,0.0,86,0.00,,CLR,0.00,0.00,VWS V14.01,2013-01-03 07:38:00,
2013-01-02 23:43:00,10.0,6.7,30.62,NE,52,0.0,1.0,86,0.00,,CLR,0.00,0.00,VWS V14.01,2013-01-03 07:43:00,
2013-01-02 23:48:00,10.0,6.9,30.62,NE,52,1.0,2.0,87,0.00,,CLR,0.00,0.00,VWS V14.01,2013-01-03 07:48:00,
2013-01-02 23:53:00,10.1,7.0,30.62,NE,52,0.0,1.0,87,0.00,,CLR,0.00,0.00,VWS V14.01,2013-01-03 07:53:00,
2013-01-02 23:58:00,10.0,6.9,30.62,NE,52,1.0,1.0,87,0.00,,CLR,0.00,0.00,VWS V14.01,2013-01-03 07:58:00,